Erie, CO

12:24 AM MDT on June 23, 2017 (GMT -0600)
Erie Municipal Airport

Weather History for KEIK - April, 2013

Change the Weather History Date:

Monday, April 29, 2013

  Actual Average (KBJC) Record (KBJC)
Temperature  
Mean Temperature 62 °F -  
Max Temperature 78 °F 61 °F 82 °F (2007)
Min Temperature 46 °F 39 °F 23 °F (2005)
Degree Days  
Heating Degree Days 3    
Growing Degree Days 12 (Base 50)    
Moisture  
Dew Point 27 °F    
Average Humidity 27    
Maximum Humidity 63    
Minimum Humidity 11    
Precipitation  
Precipitation 0.00 in - - ()
Sea Level Pressure  
Sea Level Pressure 29.77 in    
Wind  
Wind Speed 6 mph (SW)    
Max Wind Speed 17 mph    
Max Gust Speed 28 mph    
Visibility 10 miles    
Events Rain    
Averages and records for this station are not official NWS values.
T = Trace of Precipitation, MM = Missing Value Source: NWS Daily Summary

Daily Weather History Graph

Daily Weather History Graph

Search for Another Location

Airport or City:

Trip Planner

Search our weather history database for the weather conditions in past years. The results will help you decide how hot, cold, wet, or windy it might be!

Date:

Astronomy

Apr. 29, 2013 Rise Set
Actual Time 6:02 AM MDT 7:53 PM MDT
Civil Twilight 5:33 AM MDT 8:22 PM MDT
Nautical Twilight 4:57 AM MDT 8:58 PM MDT
Astronomical Twilight 4:19 AM MDT 9:36 PM MDT
Moon No Moon Rise 9:25 AM MDT (4/29)
Length of Visible Light 14h 49m
Length of Day
13h 50m
Waning Gibbous, 79% of the Moon is Illuminated
Apr 29
Waning Gibbous
May 2
Last Quarter
May 9
New
May 17
First Quarter
May 24
Full

Hourly Weather History & Observations

Time (MDT) Temp. Dew Point Humidity Pressure Visibility Wind Dir Wind Speed Gust Speed Precip Events Conditions
12:16 AM 60.4 °F 34.7 °F 38% 29.95 in 10.0 mi SSW 4.6 mph - N/A   Overcast
12:36 AM 59.5 °F 35.6 °F 41% 29.94 in 10.0 mi Calm Calm - N/A   Overcast
12:56 AM 58.5 °F 37.0 °F 45% 29.95 in 10.0 mi West 3.5 mph - N/A   Overcast
1:16 AM 59.0 °F 37.6 °F 45% 29.94 in 10.0 mi NNE 4.6 mph - N/A Rain Light Rain
1:36 AM 59.2 °F 36.7 °F 43% 29.94 in 10.0 mi SW 4.6 mph - N/A   Overcast
1:56 AM 59.4 °F 34.5 °F 39% 29.95 in 10.0 mi East 5.8 mph - N/A   Overcast
2:16 AM 59.2 °F 34.7 °F 40% 29.94 in 10.0 mi Calm Calm - N/A   Scattered Clouds
2:36 AM 58.1 °F 35.4 °F 43% 29.94 in 10.0 mi South 3.5 mph - N/A   Clear
2:56 AM 55.6 °F 36.5 °F 49% 29.93 in 10.0 mi ESE 3.5 mph - N/A   Clear
3:16 AM 52.9 °F 37.4 °F 56% 29.93 in 10.0 mi South 4.6 mph - N/A   Clear
3:36 AM 53.1 °F 36.7 °F 54% 29.93 in 10.0 mi SE 5.8 mph - N/A   Clear
3:56 AM 54.0 °F 34.7 °F 48% 29.92 in 10.0 mi SE 10.4 mph - N/A   Clear
4:16 AM 54.3 °F 34.3 °F 47% 29.91 in 10.0 mi South 4.6 mph - N/A   Clear
4:36 AM 52.2 °F 34.0 °F 50% 29.90 in 10.0 mi SSW 5.8 mph - N/A   Clear
4:56 AM 48.7 °F 34.7 °F 58% 29.89 in 10.0 mi SE 6.9 mph - N/A   Clear
5:16 AM 46.6 °F 34.7 °F 63% 29.89 in 10.0 mi SE 4.6 mph - N/A   Clear
5:36 AM 49.1 °F 34.7 °F 58% 29.87 in 10.0 mi SSE 5.8 mph - N/A   Clear
5:56 AM 48.4 °F 34.3 °F 58% 29.87 in 10.0 mi SSE 8.1 mph - N/A   Clear
6:16 AM 47.8 °F 34.7 °F 60% 29.86 in 10.0 mi SW 5.8 mph - N/A   Clear
6:36 AM 48.2 °F 34.7 °F 60% 29.85 in 10.0 mi South 8.1 mph - N/A   Clear
6:56 AM 52.2 °F 34.2 °F 50% 29.86 in 10.0 mi South 4.6 mph - N/A   Clear
7:16 AM 53.1 °F 35.2 °F 51% 29.85 in 10.0 mi SSW 3.5 mph - N/A   Clear
7:36 AM 55.6 °F 34.9 °F 46% 29.85 in 10.0 mi SSW 9.2 mph - N/A   Clear
7:56 AM 56.8 °F 34.0 °F 42% 29.83 in 10.0 mi SSE 10.4 mph - N/A   Clear
8:16 AM 59.0 °F 34.0 °F 39% 29.82 in 10.0 mi SSE 9.2 mph - N/A   Clear
8:36 AM 61.5 °F 32.5 °F 34% 29.82 in 10.0 mi SSE 11.5 mph - N/A   Clear
8:56 AM 64.2 °F 32.2 °F 30% 29.81 in 10.0 mi South 8.1 mph - N/A   Clear
9:16 AM 66.4 °F 31.5 °F 27% 29.80 in 10.0 mi South 10.4 mph - N/A   Clear
9:36 AM 67.6 °F 29.3 °F 24% 29.79 in 10.0 mi South 9.2 mph - N/A   Clear
9:56 AM 69.8 °F 29.5 °F 22% 29.79 in 10.0 mi SSE 6.9 mph - N/A   Clear
10:16 AM 70.3 °F 27.0 °F 20% 29.79 in 10.0 mi NW 3.5 mph - N/A   Clear
10:36 AM 70.2 °F 25.9 °F 19% 29.78 in 10.0 mi Calm Calm - N/A   Clear
10:56 AM 71.4 °F 25.5 °F 18% 29.78 in 10.0 mi NNW 5.8 mph - N/A   Clear
11:16 AM 72.3 °F 24.1 °F 16% 29.78 in 10.0 mi SSW 3.5 mph - N/A   Clear
11:36 AM 72.5 °F 23.2 °F 16% 29.78 in 10.0 mi SW 4.6 mph - N/A   Clear
11:56 AM 73.6 °F 24.8 °F 16% 29.77 in 10.0 mi WNW 6.9 mph 16.1 mph N/A   Clear
12:16 PM 75.4 °F 23.0 °F 14% 29.77 in 10.0 mi West 13.8 mph 23.0 mph N/A   Clear
12:36 PM 75.7 °F 21.6 °F 13% 29.76 in 10.0 mi West 12.7 mph 27.6 mph N/A   Clear
12:56 PM 75.6 °F 21.4 °F 13% 29.75 in 10.0 mi WNW 12.7 mph - N/A   Clear
1:16 PM 75.7 °F 22.1 °F 13% 29.73 in 10.0 mi WNW 5.8 mph 9.2 mph N/A   Clear
1:36 PM 76.8 °F 23.2 °F 14% 29.72 in 10.0 mi West 6.9 mph - N/A   Clear
1:56 PM 76.8 °F 24.3 °F 14% 29.71 in 10.0 mi WSW 16.1 mph 27.6 mph N/A   Clear
2:16 PM 77.2 °F 23.4 °F 14% 29.70 in 10.0 mi SW 8.1 mph - N/A   Clear
2:36 PM 78.3 °F 20.7 °F 12% 29.70 in 10.0 mi West 5.8 mph 18.4 mph N/A   Clear
2:56 PM 77.9 °F 21.6 °F 12% 29.69 in 10.0 mi WNW 11.5 mph 19.6 mph N/A   Clear
3:16 PM 77.9 °F 21.0 °F 12% 29.69 in 10.0 mi WNW 11.5 mph 18.4 mph N/A   Clear
3:36 PM 78.1 °F 19.9 °F 11% 29.67 in 10.0 mi West 6.9 mph 20.7 mph N/A   Clear
3:56 PM 77.0 °F 19.2 °F 11% 29.66 in 10.0 mi West 15.0 mph 24.2 mph N/A   Clear
4:16 PM 77.0 °F 18.0 °F 11% 29.66 in 10.0 mi West 17.3 mph 23.0 mph N/A   Clear
4:36 PM 76.1 °F 19.9 °F 12% 29.66 in 10.0 mi West 11.5 mph - N/A   Clear
4:56 PM 76.1 °F 20.3 °F 12% 29.64 in 10.0 mi West 6.9 mph - N/A   Clear
5:16 PM 75.9 °F 19.9 °F 12% 29.64 in 10.0 mi WSW 6.9 mph 17.3 mph N/A   Clear
5:36 PM 75.7 °F 21.7 °F 13% 29.64 in 10.0 mi West 9.2 mph - N/A   Clear
5:56 PM 76.1 °F 19.8 °F 12% 29.64 in 10.0 mi WSW 11.5 mph 21.9 mph N/A   Clear
6:16 PM 75.6 °F 19.2 °F 12% 29.63 in 10.0 mi WSW 11.5 mph - N/A   Clear
6:36 PM 75.6 °F 18.3 °F 12% 29.63 in 10.0 mi WSW 15.0 mph 26.5 mph N/A   Clear
6:56 PM 75.2 °F 19.8 °F 12% 29.62 in 10.0 mi SW 10.4 mph 19.6 mph N/A   Clear
7:16 PM 74.8 °F 18.7 °F 12% 29.62 in 10.0 mi SW 12.7 mph 23.0 mph N/A   Clear
7:36 PM 72.9 °F 19.8 °F 13% 29.63 in 10.0 mi SW 11.5 mph - N/A   Clear
7:56 PM 72.3 °F 19.2 °F 13% 29.63 in 10.0 mi SW 10.4 mph 16.1 mph N/A   Clear
8:16 PM 72.1 °F 18.9 °F 13% 29.63 in 10.0 mi SW 10.4 mph 16.1 mph N/A   Clear
8:36 PM 69.1 °F 21.7 °F 17% 29.64 in 10.0 mi South 5.8 mph - N/A   Clear
8:56 PM 68.4 °F 22.3 °F 17% 29.64 in 10.0 mi SW 6.9 mph - N/A   Clear
9:36 PM 70.5 °F 19.9 °F 15% 29.65 in 10.0 mi SSW 5.8 mph - N/A   Clear
9:56 PM 70.9 °F 19.8 °F 14% 29.65 in 10.0 mi SW 5.8 mph - N/A   Clear
10:16 PM 70.7 °F 19.6 °F 14% 29.65 in 10.0 mi Calm Calm - N/A   Clear
10:36 PM 69.4 °F 20.1 °F 15% 29.65 in 10.0 mi SW 10.4 mph 16.1 mph N/A   Clear
10:56 PM 69.1 °F 20.1 °F 16% 29.64 in 10.0 mi South 9.2 mph - N/A   Clear
11:16 PM 67.8 °F 20.5 °F 17% 29.64 in 10.0 mi South 5.8 mph - N/A   Clear
11:36 PM 67.1 °F 21.7 °F 18% 29.64 in 10.0 mi SW 8.1 mph - N/A   Clear
11:56 PM 62.8 °F 24.8 °F 24% 29.64 in 10.0 mi South 4.6 mph - N/A   Clear